Weather History for Rock Springs, WY

Change the Weather History Date:

Monday, June 23, 2014

  Actual Average Record
Temperature  
Mean Temperature 63 °F 63 °F  
Max Temperature 81 °F 78 °F 96 °F (1954)
Min Temperature 44 °F 49 °F 37 °F (2003)
Degree Days  
Heating Degree Days 2 3  
Month to date heating degree days 138 147  
Since 1 June heating degree days 138 147  
Since 1 July heating degree days 7482 8122  
Cooling Degree Days 0 2  
Month to date cooling degree days 6 17  
Year to date cooling degree days 13 18  
Since 1 June cooling degree days 6 17  
Growing Degree Days 11 (Base 50)    
Moisture  
Dew Point 34 °F    
Average Humidity 41    
Maximum Humidity 70    
Minimum Humidity 12    
Precipitation  
Precipitation T in 0.02 in 0.70 in (2003)
Month to date precipitation 0.20 0.65  
Year to date precipitation 1.51 4.38  
Sea Level Pressure  
Sea Level Pressure 29.96 in    
Wind  
Wind Speed 8 mph (East)    
Max Wind Speed 41 mph    
Max Gust Speed 50 mph    
Visibility 10 miles    
Events Rain    
T = Trace of Precipitation, MM = Missing Value Source: NWS Daily Summary

Daily Weather History Graph

Daily Weather History Graph

Search for Another Location

Airport:

Trip Planner

Search our weather history database for the weather conditions in past years. The results will help you decide how hot, cold, wet, or windy it might be!

Date:

Astronomy

Jun. 23, 2014 Rise Set
Actual Time 5:42 AM MDT 8:54 PM MDT
Civil Twilight 5:08 AM MDT 9:28 PM MDT
Nautical Twilight 4:24 AM MDT 10:12 PM MDT
Astronomical Twilight 3:32 AM MDT 11:04 PM MDT
Moon 3:12 AM MDT (6/23) 5:36 PM MDT (6/23)
Length of Visible Light 16h 19m
Length of Day
15h 11m
Waning Crescent, 12% of the Moon is Illuminated
Jun 23
Waning Crescent
Jun 27
New
Jul 5
First Quarter
Jul 12
Full
Jul 18
Last Quarter

Hourly Weather History & Observations

Time (MDT) Temp. Windchill Dew Point Humidity Pressure Visibility Wind Dir Wind Speed Gust Speed Precip Events Conditions
12:54 AM 50.0 °F - 36.0 °F 59% 29.96 in 10.0 mi ENE 5.8 mph - N/A   Clear
1:54 AM 48.0 °F - 36.0 °F 63% 29.98 in 10.0 mi ENE 8.1 mph - N/A   Clear
2:54 AM 48.0 °F - 37.0 °F 66% 29.96 in 10.0 mi ENE 5.8 mph - N/A   Clear
4:54 AM 45.0 °F 41.2 °F 36.0 °F 71% 29.98 in 10.0 mi East 6.9 mph - N/A   Clear
5:54 AM 44.1 °F 40.1 °F 36.0 °F 73% 29.99 in 10.0 mi East 6.9 mph - N/A   Clear
6:54 AM 48.9 °F - 37.9 °F 66% 29.99 in 10.0 mi ENE 6.9 mph - N/A   Clear
7:54 AM 54.0 °F - 39.0 °F 57% 29.99 in 10.0 mi ENE 8.1 mph - N/A   Clear
8:54 AM 59.0 °F - 39.0 °F 48% 29.99 in 10.0 mi East 11.5 mph - N/A   Clear
9:54 AM 62.1 °F - 37.9 °F 41% 30.01 in 10.0 mi Variable 5.8 mph - N/A   Clear
10:54 AM 66.9 °F - 37.9 °F 34% 29.99 in 10.0 mi NNE 8.1 mph - N/A   Clear
11:54 AM 73.0 °F - 34.0 °F 24% 29.96 in 10.0 mi East 9.2 mph - N/A   Clear
12:54 PM 75.0 °F - 28.9 °F 18% 29.94 in 10.0 mi Variable 4.6 mph - N/A   Clear
1:54 PM 77.0 °F - 26.1 °F 15% 29.92 in 10.0 mi Variable 5.8 mph - N/A   Clear
4:54 PM 78.1 °F - 25.0 °F 14% 29.89 in 10.0 mi West 8.1 mph 17.3 mph N/A   Clear
5:54 PM 75.9 °F - 28.0 °F 17% 29.90 in 10.0 mi SSW 16.1 mph - N/A   Mostly Cloudy
6:54 PM 71.1 °F - 28.9 °F 21% 29.93 in 10.0 mi SE 8.1 mph 43.7 mph 0.00 in Rain Light Rain
7:54 PM 68.0 °F - 34.0 °F 28% 29.95 in 10.0 mi WNW 4.6 mph - 0.00 in   Partly Cloudy
8:54 PM 64.0 °F - 36.0 °F 35% 29.93 in 10.0 mi South 8.1 mph - N/A   Partly Cloudy
9:54 PM 64.0 °F - 33.1 °F 31% 29.94 in 10.0 mi South 5.8 mph - N/A   Clear
10:54 PM 61.0 °F - 32.0 °F 34% 29.94 in 10.0 mi NE 9.2 mph - N/A   Clear
11:54 PM 59.0 °F - 41.0 °F 51% 29.93 in 10.0 mi NE 9.2 mph - N/A   Clear